Погода в Осташкове

Погода в Осташкове : погода сейчас, прогноз погоды и архив. Всё, что Вы хотите узнать о погоде в Осташкове!

Поиск расширенной информации на нашем сайте:

Другие новости

Новости СМИ2

Главная страница сайта

Новости сайта

02.10.2013

Напоминаем, что на нашем новом сайте вы можете получить высокодетализированные прогнозы погоды по пунктам России, СНГ и мира (включающие важные для авиации метеовеличины, такие как направление и скорость ветра, видимость, явления погоды, количество и форма облачности, нижняя и верхняя граница облачности), а также ознакомиться с разнообразными материалами по авиационной метеорологии и подборкой полезных ссылок на эту тему.

Сайт Метеоцентр.Азия посвящён разработке технологий оптимизации авиаметеорологического обслуживания, включая проектирование и перспективное создание нескольких автоматизированных авиаметеорологических систем:
- система выпуска высокодетальных прогностических карт явлений погоды для нижнего воздушного пространства по России и ближнему зарубежью;
- система верификации прогнозов TAF (выпускаемых синоптиками официальных АМСГ РФ и ближнего зарубежья) и AUTOTAF (выпускаемых сайтом Метеоцентр.Азия) - выявление ошибок, онлайн-сопоставление с фактической погодой METAR, автоматическое внесение коррективов в прогнозы при резком отклонении фактической погоды от прогноза, подсчёт оправдываемости прогнозов по элементам и в целом;
- система обработки, анализа и отображения авиаметеорологической информации для применения провайдерами метеорологической информации.

Рекомендуем: курсы повышения квалификации по радиационной безопасности

Погода в Осташкове - сегодня

Время (UTC), дата Ветер
(°,м/с) 
Видим.   Явления Облачность Т
(°С)
Тd
(°С)
f(%) Тe
(°С)
Pmin
(гПа)
dP
(гПа)
Po
(мм)
O2
(г/м3)
Тmin Tmax R s Состояние
почвы
06 21.03.17 тихо ()   4000 м  дымка  8/8 600 м 
[Sc]
-1.7 -2 98 -2  1010.1  -0.2  737  299  -6.3      12  мокрый или
старый снег
50-90% 
09 21.03.17 170 (Ю) 10 км    8/8 600 м 
[Sc]
+2.8 -2.9 66 +1  1009.3  -0.4  737  294           
12 21.03.17 150 (ЮВ) 10 км    3/0 средняя 
[Ac trans]
+6.8 -2 53 +7  1007.6  -1.2  736  290           
15 21.03.17 170 (Ю) 10 км    4/0 средняя 
[Ac trans]
+5.2 -1.7 61 +5  1007.6  -0.2  736  291           
18 21.03.17 180 (Ю) 10 км    8/8 600 м 
[Sc]
+4.2 +1 80 +3  1008.5  0.8  737  292    +7.2       
21 21.03.17 180 (Ю) 4000 м  дымка  8/8 600 м 
[Sc]
+3.3 +2.3 93 +4  1009.8  1.1  738  293           
00 22.03.17 200 (Ю) 4000 м  дымка  9/9 600 м 
[Sc]
+3.3 +2.8 97 +4  1011.6  1.8  739  294           
03 22.03.17 190 (Ю) 4000 м  дымка  8/8 600 м 
[Sc]
+3.2 +3 99 +4  1012.6  0.9  740  294  +3.1         
06 22.03.17 170 (Ю) 4000 м  дымка  8/8 600 м 
[Sc]
+4.1 +2.5 89 +4  1013.1  0.5  740  293  +3.1      10  мокрый или
старый снег
50-90% 
09 22.03.17 170 (Ю) 10 км    6/6 600 м 
[Sc]
+6.4 +2.6 77 +6  1012.8  -0.1  740  291           
12 22.03.17 170 (Ю) 10 км  {ливн. осадки}  8/8 600 м 
[Sc]
+6 +3.4 83 +6  1012.3  -0.6  740  291           
15 22.03.17 240 (ЮЗ) 4000 м  слаб. ливневой дождь  10/10 300 м кучево-дожд. 
[Cb cap]
+4.9 +4.1 95 +4  1013.1  0.7  740  292         
18 22.03.17 230 (ЮЗ) 4000 м  дымка{ливн. осадки}  8/8 600 м 
[Sc]
+3.2 +2.7 97 +4  1015.2  1.8  742  295    +7.3     
21 22.03.17 230 (ЮЗ) 4000 м  дымка  6/6 600 м 
[Sc]
+1.7 +1.5 99 +1  1016.3  0.9  742  297           
00 23.03.17 230 (ЮЗ) 4000 м  дымка  3/0 средняя 
[Ac trans]
+0.3 -0.2 96 1017.7  1.2  743  299           
03 23.03.17 230 (ЮЗ) 4000 м  дымка  4/0 средняя 
[Ac trans]
-0.5 -1.4 94 -1  1018.8  1.1  744  300  -0.6    0.4     
06 23.03.17 240 (ЮЗ) 10 км    ясно 
+1.8 -0.9 82 1019.8  1.1  745  298  -0.6      мокрый или
старый снег
50-90% 
09 23.03.17 240 (ЮЗ) 10 км    3/3 600 м 
[Sc]
+5.5 +0.2 69 +3  1019.6  0.2  745  294           
12 23.03.17 250 (З) 4{12}  10 км    6/6 1000 м 
[Cu med, cong]
+7.5 -2.6 49 +6  1019.8  0.4  745  293           
15 23.03.17 260 (З) 4-11{12}  10 км    4/4 600 м 
[Sc]
+6.8 -4.5 44 +5  1020.9  746  294           
18 23.03.17 210 (ЮЗ) 1{12}  10 км    ясно 
+1.9 -4.3 63 +3  1022.4  747  299    +7.8       
21 23.03.17 200 (Ю) 10 км    ясно 
-0.2 -4.1 75 1022.6  747  302           
00 24.03.17 200 (Ю) 10 км    ясно 
-0.4 -4.1 76 1021.8  -0.9  746  301           
03 24.03.17 200 (Ю) 10 км    4/0 средняя 
[Ac trans]
-0.8 -4.3 77 1020.2  -1.5  745  301  -1.6         
06 24.03.17 240 (ЮЗ) 10 км    8/8 600 м 
[Sc]
+1 -4 69 1018.7  -1.3  744  299  -1.6      мокрый или
старый снег
50-90% 
Время (UTC), дата Ветер
(°,м/с) 
Видим.   Явления Облачность Т
(°С)
Тd
(°С)
f(%) Тe
(°С)
Pmin
(гПа)
dP
(гПа)
Po
(мм)
O2
(г/м3)
Тmin Tmax R s Состояние
почвы

Для получения пояснительной информации подведите курсор к названию столбца.

ПОГОДА в Осташкове - архив

Всё, что Вы хотите узнать о погоде в Осташкове - удобно и подробно!

Выберите нужную дату (начиная с 1 января 2015* года) и нажмите кнопку "Найти".
Будут отображены архивные сводки погоды по пункту Осташков, начиная с указанной даты.


Отображать данные в формате CSV (для использования в таблицах Excel)


Внимание! Наш архив погоды предназначен исключительно для личного некоммерческого использования в познавательных целях. Если Вам необходимы официальные справки о состоянии погоды (для производственных, юридических, коммерческих и т.п. целей), обращайтесь в органы Росгидромета.

*Примечание: данная дата относится к архиву по метеостанциям СССР (Россия, СНГ, Балтия).
Архив по метеостанциям Зарубежной Европы и Азии (кроме Китая) хранится 10 дней, по другим регионам земного шара (Китай, Африка, Америка, Австралия, Океания) - 1 день.

Осташков - район местоположения метеостанции


Название, широта, долгота, высота метеостанции:
Осташков 57.1°ш. 33.1°д. 218 м над ур. моря [Российская Федерация]

Дополнительная информация

В oтличие oт бoльшинства пoгoдных сайтoв мы публикуем пoдрoбную метеoинфoрмацию в детальнoм прoфессиoнальнoм фoрмате.

Характеристики температуры и влажнoсти вoздуха измеряются на высoте 2 м в тени вдали oт зданий и деревьев.
Скoрoсть ветра измеряется на высoте 10 м (на урoвне рoста челoвека скoрoсть ветра ниже в 1.5-2 раза). Если метеoстанция нахoдится в гoрoде или в лесу, тo скoрoсть ветра занижена на 2-4 м/с пo сравнению с oткрытым местoм. Скoрoсть ветра над акватoриями крупных рек и oзёр, а также на вершинах хoлмoв на 2-5 м/с выше, чем в oбычных услoвиях.
Атмoсфернoе давление в разных тoчках местнoсти мoжет значительнo oтличаться oт давления на метеoстанции, в зависимoсти oт услoвий рельефа (при пoдъёме на 10 м давление пoнижается примернo на 1 мм рт.ст.).